Weather in Naples

United States     26°08′53″N   81°47′25″W
temp.,
°C
wind,
m/s
gust,
m/s
humid.,
%
clouds,
%
prec.,
mm/h
press.,
hPa
HPBL,
m
17 may, mon
mon1723:00+22ene711675 0.0 1020596
02:00+21ene511725 0.0 1019413
05:00+20ene497861 0.0 1018269
08:00+21ene597335 0.0 1019340
11:00+27e5548100 0.0 10201425
14:00+31ene333686 0.0 10182058
17:00+30sw444196 0.0 10161596
20:00+27nw1254100 0.0 1018292
18 may, tue
tue1823:00+24e61056100 0.0 1020795
02:00+22e5116586 0.0 1019442
05:00+20ene377979 0.0 1018171
08:00+22ene5876100 0.0 1019299
11:00+28e7854100 0.0 10191567
14:00+28e8850100 0.0 10181689
17:00+28ese7948100 0.0 10171187
20:00+26e61048100 0.0 1018669
19 may, wed
wed1923:00+23ene6126314 0.0 1019505
02:00+21ene5127975 0.0 1018451
05:00+21ene5137964 0.0 1017501
08:00+23ene5106650 0.0 1019519
11:00+29e77467 0.0 10191539
14:00+33ese7737100 0.0 10162401
17:00+30e8946100 0.0 10161645
20:00+27e811560 0.0 10171076
20 may, thu
thu2023:00+24ene7136826 0.0 1019859
02:00+23e713767 0.0 1018860
05:00+22ene7137766 0.0 1018718
08:00+24ene81271100 0.0 1019991
11:00+28e91047100 0.0 10191750
14:00+31ene101035100 0.0 10182055
17:00+29ene11114216 0.0 10181998
20:00+25ene81154100 0.0 10191571
21 may, fri
fri2123:00+24ene7136685 0.0 1020916
02:00+22ene7147623 0.1 1020768
05:00+22ene714765 0.0 1019766
08:00+24ene8137184 0.0 10201137
11:00+27ene101256100 0.0 10211584
14:00+30e10114699 0.0 10201809
17:00+28ene91148100 0.0 10201840
20:00+26ene81250100 0.0 10201255